Lexington Weather

Lexington, Massachusetts, USA

46°F
10/26/2020 6:35am 
  • Lexington Conditions: Light rain, Overcast
  • Temperature: 46.0°F / 7.8°CWarmer 0.3°F than last hour.
  • Dew Point: 42.6°FIncreased 2.1°Fsince last hour.
  • Relative Humidity: 88%Increased 6.0% since last hour.
  • Wind: Wind from N N Calm, 10-min avg: 1 mph, gust: 2 mph
  • Barometer: 30.27 in Steady
  • Visibility: 10 miles
  • Rain Today: 0.00 in
  •   

Regional Weather Roundup
for Boston / Norton, MA

        
000
ASUS41 KBOX 231004
RWRBOX

REGIONAL WEATHER ROUNDUP
NATIONAL WEATHER SERVICE BOSTON/NORTON MA
600 AM EDT FRI OCT 23 2020

NOTE:  "FAIR" INDICATES FEW OR NO CLOUDS BELOW 12,000 FEET WITH NO 
SIGNIFICANT WEATHER AND/OR OBSTRUCTIONS TO VISIBILITY.

MAZALL-231100-
EASTERN MASSACHUSETTS
  
CITY           SKY/WX    TMP DP  RH WIND       PRES   REMARKS
BOSTON         FOG       56  56 100 NE5       30.26R VSB<1/4          
BEVERLY        CLOUDY    58  55  90 E3        30.25R                  
LAWRENCE       CLOUDY    58  56  93 CALM      30.28R                  
BEDFORD        CLOUDY    57  56  96 E5        30.24R                  
BLUE HILL        N/A     53  53 100 NE5       30.24R                  
NORWOOD        CLOUDY    56  54  93 CALM      30.25R FOG              
MARSHFIELD     CLOUDY    59  59 100 CALM      30.25R                  
PLYMOUTH       CLOUDY    55  55 100 NE3       30.24R                  
TAUNTON        CLOUDY    56  54  93 CALM      30.24R FOG              
NEW BEDFORD    FOG       56  55  97 E3        30.24R VSB 3/4          
$$

MAZALL-231100-
CAPE COD AND THE ISLANDS
  
CITY           SKY/WX    TMP DP  RH WIND       PRES   REMARKS
FALMOUTH       CLOUDY    55  55 100 SE9       30.24R FOG              
HYANNIS        CLOUDY    55  54  96 CALM      30.23R                  
CHATHAM        PTCLDY    57  55  93 NE6       30.24S                  
PROVINCETOWN   CLOUDY    56  55  97 SE8       30.25R                  
NANTUCKET      CLOUDY    57  56  96 NE9       30.22S                  
MARTHAS VNYRD  CLOUDY    57  57 100 E9        30.23S                  
$$
 
MAZALL-231100-
CENTRAL AND WESTERN MASSACHUSETTS
  
CITY           SKY/WX    TMP DP  RH WIND       PRES   REMARKS
WORCESTER      FOG       55  54  96 CALM      30.25R VSB 1/2          
FITCHBURG      CLOUDY    56  55  97 CALM      30.26R FOG              
ORANGE         CLOUDY    59  57  93 CALM      30.24R                  
SPRINGFIELD    CLOUDY    64  61  90 CALM      30.21R                  
WESTFIELD      CLOUDY    63  61  93 S3        30.22R                  
NORTH ADAMS    CLOUDY    56  55  97 CALM      30.21R                  
$$
 
RIZALL-231100-
RHODE ISLAND
  
CITY           SKY/WX    TMP DP  RH WIND       PRES   REMARKS
PROVIDENCE     FOG       55  55 100 E5        30.25R VSB 1/2          
NEWPORT        FOG       55  55 100 CALM      30.24R VSB 1/4          
BLOCK ISLAND   FOG       57  56  96 E7        30.24R VSB 1/2          
SMITHFIELD     FOG       56  56 100 CALM        N/A  VSB 1/4          
WESTERLY       CLOUDY    60  58  92 E5        30.24R FOG              
$$
 
CTZALL-231100-
CONNECTICUT
  
CITY           SKY/WX    TMP DP  RH WIND       PRES   REMARKS
BRADLEY INTL   CLOUDY    65  59  81 SW3       30.22R                  
HARTFORD       CLOUDY    66  60  81 CALM      30.22R                  
BRIDGEPORT     CLOUDY    64  62  93 E8        30.21R                  
DANBURY        CLOUDY    63  62  97 SE3       30.22R FOG              
GROTON         CLOUDY    61  60  97 E7        30.23R                  
NEW HAVEN      CLOUDY    65  63  93 E6        30.21R                  
CHESTER        FOG       63  63 100 CALM      30.23R VSB 1/4          
MERIDEN        CLOUDY    64  61  90 CALM      30.22R                  
WILLIMANTIC    CLOUDY    63  61  93 CALM      30.23R                  
OXFORD         CLOUDY    62  62 100 E3        30.23R FOG              
$$

MEZ002-015-021-024-NHZ003-005-008-011-012-014-VTZ005-008-231100-
NORTHERN NEW ENGLAND
  
CITY           SKY/WX    TMP DP  RH WIND       PRES   REMARKS
PORTLAND ME    CLOUDY    53  51  93 E3        30.29R                  
BANGOR ME      CLOUDY    52  43  71 CALM      30.31R                  
CONCORD NH     CLOUDY    54  53  97 CALM      30.26R FOG              
MANCHESTER NH  FOG       57  54  89 CALM      30.25R VSB 1            
NASHUA NH      LGT RAIN  55  55 100 CALM      30.27R FOG              
PORTSMOUTH NH  CLOUDY    55  53  93 NE6       30.26R                  
JAFFREY NH     CLOUDY    55  53  93 CALM      30.25R FOG              
KEENE NH       CLOUDY    60  57  89 CALM      30.23R                  
BURLINGTON VT  PTCLDY    59  52  77 S16       30.12F                  
MT. WASHINGTON LGT RAIN  46  46 100 SW35G43     N/A  VSB 0            
$$

NYZ052-076-231100-
EASTERN NEW YORK
  
CITY           SKY/WX    TMP DP  RH WIND       PRES   REMARKS
ALBANY         CLOUDY    54  54 100 CALM      30.19R                  
NEW YORK CITY  FOG       64  62  93 S6        30.20R VSB 1            
$$
 
ANZALL-231100-
MARINE OBSERVATIONS
  
STATION/POSITION TIME  TEMP    WIND        PRES    VSBY  WAVE
                       AIR SEA DIR/SP/G                  HT/PER
                 (UTC) (F)     (DEG/KT/KT) (MB)    (MI)  (FT/S)
BOSTON BUOY      0950   57 58   80/  4/  4 1023.3R         3/11
BUZZARDS BAY     0900           60/ 10/ 12 1024.4S
NANTUCKET SOUND  0950      62   80/ 12/ 14   N/A           2/12
MASS BAY-STELLWA 0904   57 57   90/  4/  4 1023.5S  1 7/8  4/11
ISLE OF SHOALS   0900   56      70/ 11/ 12 1024.1R
S OF BLOCK IS    0926      63                N/A           5/13
$$

......................KEY.........................
  SKY/WX - SKY CONDITION/PRESENT WEATHER
  TMP    - TEMPERATURE IN FAHRENHEIT
  DWPT   - DEWPOINT IN FAHRENHEIT
  RH     - RELATIVE HUMIDITY IN PERCENT
  WIND   - DIRECTION AND SPEED IN MPH
  PRES   - MEAN SEA LEVEL PRESSURE IN INCHES OF HG
  WCI    - WIND CHILL INDEX
  VSB    - VISIBILITY IN MILES
  HX     - HEAT INDEX
  TC     - TEMPERATURE IN CELSIUS
  VRB    - VARIABLE WIND DIRECTION
  N/A    - NOT AVAILABLE
  
      

Other recent Regional Weather Roundups

Mon Oct 26, 6:04am

Mon Oct 26, 5:04am

Mon Oct 26, 4:04am

Mon Oct 26, 3:04am

Mon Oct 26, 2:04am

Mon Oct 26, 1:04am

Mon Oct 26, 12:04am

Sun Oct 25, 11:05pm

Sun Oct 25, 10:04pm

Sun Oct 25, 9:04pm

Sun Oct 25, 8:04pm

Sun Oct 25, 7:04pm

Sun Oct 25, 6:04pm

Sun Oct 25, 5:04pm

Sun Oct 25, 4:05pm

Sun Oct 25, 3:04pm

Sun Oct 25, 2:04pm

Sun Oct 25, 1:04pm

Sun Oct 25, 12:04pm

Sun Oct 25, 11:04am

Sun Oct 25, 10:04am

Sun Oct 25, 9:04am

Sun Oct 25, 8:04am

Sun Oct 25, 7:04am

Sun Oct 25, 6:04am

Sun Oct 25, 5:04am

Sun Oct 25, 4:04am

Sun Oct 25, 3:04am

Sun Oct 25, 2:04am

Sun Oct 25, 1:05am

Sun Oct 25, 12:04am

Sat Oct 24, 11:04pm

Sat Oct 24, 10:04pm

Sat Oct 24, 9:04pm

Sat Oct 24, 8:04pm

Sat Oct 24, 7:04pm

Sat Oct 24, 6:04pm

Sat Oct 24, 5:05pm

Sat Oct 24, 4:04pm

Sat Oct 24, 3:04pm

Sat Oct 24, 2:04pm

Sat Oct 24, 1:05pm

Sat Oct 24, 12:04pm

Sat Oct 24, 11:05am

Sat Oct 24, 10:05am

Sat Oct 24, 9:04am

Sat Oct 24, 8:04am

Sat Oct 24, 7:04am

Sat Oct 24, 6:04am

Sat Oct 24, 5:04am

Sat Oct 24, 4:04am

Sat Oct 24, 3:04am

Sat Oct 24, 2:04am

Sat Oct 24, 1:05am

Sat Oct 24, 12:04am

Fri Oct 23, 11:04pm

Fri Oct 23, 10:04pm

Fri Oct 23, 9:04pm

Fri Oct 23, 8:05pm

Fri Oct 23, 7:04pm

Fri Oct 23, 6:04pm

Fri Oct 23, 5:05pm

Fri Oct 23, 4:04pm

Fri Oct 23, 3:04pm

Fri Oct 23, 2:05pm

Fri Oct 23, 1:04pm

Fri Oct 23, 12:04pm

Fri Oct 23, 11:04am

Fri Oct 23, 10:04am

Fri Oct 23, 9:04am

Fri Oct 23, 8:04am

Fri Oct 23, 7:04am

Fri Oct 23, 5:04am

Fri Oct 23, 4:04am

Fri Oct 23, 3:04am

Fri Oct 23, 2:04am

Fri Oct 23, 1:04am

Fri Oct 23, 12:04am

Thu Oct 22, 11:04pm

Thu Oct 22, 10:04pm

Thu Oct 22, 9:05pm

Thu Oct 22, 8:04pm

Thu Oct 22, 7:05pm

Thu Oct 22, 6:04pm

Thu Oct 22, 5:04pm

Thu Oct 22, 4:05pm

Thu Oct 22, 3:04pm

Thu Oct 22, 2:05pm

Thu Oct 22, 1:04pm

Thu Oct 22, 12:04pm

Thu Oct 22, 11:04am

Thu Oct 22, 10:05am

Thu Oct 22, 9:04am

Thu Oct 22, 8:05am

Thu Oct 22, 7:04am

Thu Oct 22, 6:04am

Thu Oct 22, 5:04am

Thu Oct 22, 4:04am

Thu Oct 22, 3:04am

Thu Oct 22, 2:04am

Thu Oct 22, 1:04am

Thu Oct 22, 12:04am

Wed Oct 21, 11:05pm

Wed Oct 21, 10:04pm

Wed Oct 21, 9:04pm

Wed Oct 21, 8:04pm

Wed Oct 21, 7:04pm

Wed Oct 21, 6:04pm

Wed Oct 21, 5:05pm

Wed Oct 21, 4:04pm

Wed Oct 21, 3:04pm

Wed Oct 21, 2:05pm

Wed Oct 21, 1:04pm

Wed Oct 21, 12:04pm

Wed Oct 21, 11:04am

Wed Oct 21, 10:04am

Wed Oct 21, 9:04am

Wed Oct 21, 8:04am

Wed Oct 21, 7:04am

Wed Oct 21, 6:04am

Wed Oct 21, 5:04am

Wed Oct 21, 4:04am

Wed Oct 21, 3:04am

Wed Oct 21, 2:04am

Wed Oct 21, 1:04am

Wed Oct 21, 12:04am

Tue Oct 20, 11:05pm

Tue Oct 20, 10:04pm

Tue Oct 20, 9:04pm

Tue Oct 20, 8:05pm

Tue Oct 20, 7:04pm

Tue Oct 20, 6:04pm

Tue Oct 20, 5:05pm

Tue Oct 20, 4:04pm

Tue Oct 20, 3:05pm

Tue Oct 20, 2:07pm

Tue Oct 20, 1:04pm

Tue Oct 20, 12:04pm

Tue Oct 20, 11:04am

Tue Oct 20, 10:05am

Tue Oct 20, 9:04am

Tue Oct 20, 8:04am

Tue Oct 20, 7:04am

Tue Oct 20, 6:04am

Tue Oct 20, 5:04am

Tue Oct 20, 4:04am

Tue Oct 20, 3:04am

Tue Oct 20, 2:04am

Tue Oct 20, 1:04am

Tue Oct 20, 12:04am

Mon Oct 19, 11:04pm

Mon Oct 19, 10:04pm

Mon Oct 19, 9:04pm

Mon Oct 19, 8:04pm

Mon Oct 19, 7:04pm

Mon Oct 19, 6:04pm

Mon Oct 19, 5:04pm

Mon Oct 19, 4:04pm

Mon Oct 19, 3:04pm

Mon Oct 19, 2:04pm

Mon Oct 19, 1:05pm

Mon Oct 19, 12:04pm

Mon Oct 19, 11:04am

Mon Oct 19, 10:04am

Mon Oct 19, 9:04am

Mon Oct 19, 8:04am

Mon Oct 19, 7:04am

Mon Oct 19, 6:04am

Mon Oct 19, 5:04am

Meta data:

ID: 6bf75048-1175-467f-9653-4d97717afa9a
Link: https://api.weather.gov/products/6bf75048-1175-467f-9653-4d97717afa9a